Location: Cossonay
(46.5833°N, 6.4167°E)
Time: 10:57:23
(UTC+00:00)

STARLINK-1257 - Pass Details

Date: 10 October 2020
Orbit: 549 x 550 km, 53.0° (Epoch: 21 October)

Event Time Altitude Azimuth Distance (km) Brightness Sun altitude
Exits shadow 04:14:03 24° 305° (NW) 1,156 4.8 -16.5°
Maximum altitude 04:15:48 35° 351° (N) 898 4.7 -16.2°
Drops below altitude 10° 04:19:38 10° 59° (ENE) 1,825 7.3 -15.5°
Sets 04:22:01 0° 68° (ENE) 2,720 8.7 -15.1°
